Location: Claremont
(35.7250°N, 81.1500°W)
Time: 03:15:16
(UTC-04:00)

Daily predictions for brighter satellites

Satellite Brightness Start Highest point End
(mag) Time Altitude Azimuth Time Altitude Azimuth Time Altitude Azimuth
Cosmos 1980 4.0 00:03:41 10° NNW 00:09:10 54° WSW 00:09:10 54° WSW
ATLAS 2AS CENTAUR R/B 3.4 00:05:37 16° SW 00:11:41 58° NW 00:19:36 10° NNE
Cosmos 44 Rocket 4.0 00:22:33 50° NE 00:22:33 50° NE 00:26:26 10° NNE
Cosmos 2237 Rocket 2.8 00:16:19 10° NW 00:21:31 45° W 00:21:31 45° W
Terra 3.4 00:22:18 25° W 00:22:18 25° W 00:25:57 10° NW
Cosmos 2181 Rocket 4.0 00:22:22 10° NNW 00:28:44 69° W 00:29:09 67° WSW
ATLAS 3B R/B 2.5 00:23:54 10° NNW 00:30:52 82° ENE 00:31:15 78° ESE
Lacrosse 4 Rocket 2.7 00:26:45 10° NNW 00:29:44 41° NNW 00:29:44 41° NNW
Meteor 2-3 Rocket 3.9 00:33:21 68° NE 00:33:21 68° NE 00:38:27 10° NNE
Cosmos 2184 Rocket 3.9 00:35:14 75° ENE 00:35:14 75° ENE 00:41:11 10° N
USA 238 DEB 4.4 00:33:39 10° NNW 00:40:24 46° NE 00:42:03 40° E
USA 238 4.4 00:33:46 10° NNW 00:40:29 46° NE 00:42:10 39° E
In-Cosmos 22 Rocket 4.3 00:42:04 73° NNW 00:42:04 73° NNW 00:47:20 10° N
Cosmos 2251 Rocket 4.3 00:41:27 10° N 00:45:53 44° NE 00:45:53 44° NE
H-2A R/B 4.3 00:48:41 14° W 00:48:59 14° W 00:51:49 10° WNW
COSMOS 2455 3.2 00:48:13 10° NW 00:53:21 55° W 00:53:21 55° W
Cosmos 2263 Rocket 3.9 01:02:46 21° ENE 01:02:46 21° ENE 01:05:32 10° NE
H-2A R/B 4.0 00:57:00 10° N 00:59:30 35° N 00:59:30 35° N
GEOS 3 Rocket 4.0 01:03:03 61° N 01:03:03 61° N 01:07:32 10° NNW
ALOS 2 4.1 01:09:15 35° NNW 01:09:15 35° NNW 01:11:49 10° NNW
SeaSat 1 3.5 01:09:19 39° NW 01:09:19 39° NW 01:12:36 10° NNW
CZ-4B R/B 4.4 01:10:44 17° NNW 01:10:44 17° NNW 01:11:35 10° NNW
Cosmos 2333 Rocket 4.5 01:11:35 10° WNW 01:13:18 12° W 01:13:18 12° W
SL-16 R/B 3.4 01:09:58 10° NW 01:13:53 33° WNW 01:13:53 33° WNW
Meteor 2-10 Rocket 4.0 01:11:53 10° N 01:16:40 65° NNW 01:16:40 65° NNW
Cosmos 44 4.1 01:24:33 55° N 01:24:33 55° N 01:29:00 10° NNE
ASTEX 1 4.4 01:20:32 10° N 01:24:03 41° NW 01:24:03 41° NW
CZ-2C R/B 3.2 01:23:37 10° NNE 01:27:31 49° NE 01:27:31 49° NE
NOSS 3-4 (A) 3.7 01:34:20 63° ENE 01:34:20 63° ENE 01:40:02 10° NE
NOSS 3-4 (C) 3.7 01:34:27 62° ENE 01:34:27 62° ENE 01:40:07 10° NE
Cosmos 1943 3.8 01:32:48 10° N 01:38:08 49° ENE 01:38:08 49° ENE
Meteor 1-27 Rocket 4.0 01:33:20 10° N 01:38:31 64° NE 01:38:31 64° NE
Nadezhda 3 Rocket 4.0 01:37:04 10° N 01:42:49 70° WNW 01:42:49 70° WNW
Cosmos 1607 4.0 01:50:04 10° NNW 01:55:24 67° NW 01:55:24 67° NW
CZ-3 Stage 3 4.2 01:42:53 10° W 02:01:23 48° WSW 02:01:23 48° WSW
CZ-4C R/B 2.8 02:06:51 10° NNW 02:14:10 86° WSW 02:15:06 72° SSE
Cosmos 909 Rocket 4.0 02:24:06 77° SE 02:24:16 78° ESE 02:31:20 10° NNE
CZ-2C R/B 3.9 02:37:41 45° WNW 02:37:41 45° WNW 02:42:15 10° NNW
Cosmos 1844 Rocket 3.6 02:41:38 38° ESE 02:41:42 38° ESE 02:46:53 10° NE
Iridium 4 Rocket 3.7 02:39:01 10° N 02:43:23 65° NE 02:43:23 65° NE
Cosmos 2263 Rocket 3.0 02:44:27 39° WNW 02:44:39 40° WNW 02:49:59 10° N
Cosmos 1624 Rocket 4.2 02:46:45 62° NW 02:46:45 62° NW 02:51:29 10° NNE
USA 234 4.2 02:40:43 10° ESE 02:46:51 45° NE 02:53:00 10° NNW
Cosmos 1867 3.8 02:43:41 10° NNW 02:48:17 62° NW 02:48:17 62° NW
CENTAUR R/B 4.2 02:49:06 10° NNW 02:56:27 41° NE 03:04:07 10° ESE
AQUA 4.5 02:53:31 10° NNE 02:57:59 47° E 02:57:59 47° E
Meteor 2-19 Rocket 4.4 03:00:49 65° WSW 03:01:15 67° W 03:07:25 10° N
IRS-P3 4.0 02:56:54 10° NNE 03:02:17 81° ESE 03:02:28 79° SE
NOSS 3-2 (C) 4.0 02:57:43 10° NW 03:05:14 60° WSW 03:06:34 54° SSW
GP-B 3.8 03:00:57 10° NNE 03:05:08 49° E 03:05:08 49° E
Cosmos 2278 Rocket 3.5 03:04:52 27° ESE 03:06:01 29° ESE 03:10:48 10° NE
Cosmos 1339 Rocket 4.3 03:00:13 10° NNW 03:06:14 67° W 03:06:35 65° WSW
Cosmos 1452 Rocket 3.5 03:07:41 72° ESE 03:07:49 72° ESE 03:13:04 10° NNE
COSMOS 2406 3.4 03:02:59 10° NNW 03:08:46 70° ENE 03:10:25 46° SE
Resurs 1-4 Rocket 4.2 03:05:50 10° NE 03:09:23 18° E 03:11:47 14° SE
RESURS DK-1 4.3 03:11:02 22° NW 03:11:02 22° NW 03:13:46 10° N
ARIANE 5 R/B 4.1 03:07:29 10° NE 03:11:34 25° E 03:13:00 22° ESE
Meteor 1-25 Rocket 4.1 03:12:25 68° WSW 03:12:50 71° W 03:18:36 10° N
CBERS-1 3.9 03:16:05 10° NNE 03:21:15 85° ESE 03:21:44 74° S
Cosmos 1633 4.5 03:24:31 23° E 03:24:42 23° E 03:27:36 10° NE
Meteor 2-21 4.4 03:23:22 55° S 03:24:49 83° E 03:30:56 10° N
ADEOS 3.8 03:19:46 10° NNE 03:24:57 62° E 03:25:57 51° SSE
Cosmos 1535 Rocket 4.4 03:29:01 55° SSW 03:30:28 80° W 03:36:45 10° N
NOSS 2-2 (D) 3.5 03:32:27 71° E 03:32:27 71° E 03:36:49 10° NE
Cosmos 1300 Rocket 3.9 03:34:50 51° WNW 03:34:50 51° WNW 03:38:42 10° N
Cosmos 1140 Rocket 4.4 03:32:15 10° N 03:37:11 45° ENE 03:41:18 14° SE
Cosmos 1190 Rocket 4.4 03:32:20 10° NNW 03:36:56 46° W 03:36:56 46° W
USA 161 3.2 03:42:28 33° NE 03:42:28 33° NE 03:44:35 10° N
BREEZE-M TANK 3.0 03:44:25 33° N 03:45:00 39° NNE 03:47:48 10° E
NOSS 2-2 (C) 3.3 03:46:30 74° W 03:46:43 78° WNW 03:51:18 10° NNE
NPP 4.2 03:45:04 10° N 03:50:07 42° WNW 03:51:12 38° W
Cosmos 407 Rocket 3.9 03:47:09 10° NNW 03:52:00 43° WSW 03:52:00 43° WSW
Cosmos 1536 2.8 03:54:17 64° SSE 03:54:49 80° E 03:58:54 10° N
UNKNOWN OBJECT B 4.4 03:55:40 10° NNE 03:59:21 32° E 04:01:16 21° SE
Spot 4 Rocket 4.0 03:54:30 10° N 03:59:39 72° WNW 04:01:12 45° SW
Cosmos 676 Rocket 4.2 03:56:16 10° NNW 04:01:14 48° WSW 04:01:57 45° SW
ERS-1 4.5 03:57:08 10° N 04:02:21 75° WNW 04:04:04 43° SSW
ERS-2 3.6 03:59:40 10° NNW 04:02:32 26° WNW 04:02:32 26° WNW
UNK 4.4 03:59:50 15° SSE 04:03:29 52° ENE 04:08:00 10° N
Chunghua 1 4.4 04:05:34 68° S 04:05:34 68° S 04:09:10 10° ESE
Gbstr 26 Del rocket 4.2 04:04:26 24° WNW 04:05:40 29° NW 04:09:00 10° NNE
Cosmos 1934 Rocket 4.2 04:05:44 36° SW 04:07:57 52° W 04:13:58 10° N
CZ-2D R/B 2.4 04:03:09 10° NNE 04:08:36 68° ESE 04:11:41 27° S
Meteor 1-19 Rocket 4.2 04:04:09 10° N 04:09:59 82° W 04:13:43 24° S
NOSS 2-2 (E) 4.4 04:11:10 32° W 04:12:18 39° NW 04:16:47 10° NNE
Cosmos 1461 3.4 04:11:59 41° WSW 04:13:22 60° WNW 04:17:58 10° NNE
APEX 4.2 04:15:12 24° SE 04:15:47 26° ESE 04:18:26 10° NE
EO 1 Del DPAF 3.4 04:14:19 26° SSE 04:16:23 74° ENE 04:20:17 10° N
IRS-1D 3.4 04:14:32 10° N 04:19:36 74° WNW 04:21:52 33° SSW
Timation 2 Rocket 4.5 04:13:55 10° NNW 04:19:58 58° ENE 04:25:49 10° SE
Cosmos 1153 Rocket 4.5 04:17:36 24° S 04:21:38 86° W 04:28:05 10° N
Meteor 1-11 Rocket 4.3 04:20:47 30° SW 04:23:09 44° WNW 04:28:50 10° N
Cosmos 1844 Rocket 4.0 04:23:18 21° W 04:25:38 27° WNW 04:30:24 10° N
USA 234 3.4 04:23:31 10° SSE 04:29:45 48° SW 04:36:02 10° NW
Okean O Rocket 2.5 04:28:45 10° NNE 04:32:55 44° E 04:36:37 13° S
Cosmos 614 Rocket 3.8 04:28:37 10° NNW 04:33:47 81° WSW 04:38:52 10° SSE
MTI 3.9 04:34:04 19° SSE 04:36:19 79° ENE 04:39:37 10° N
Cosmos 1400 Rocket 3.3 04:35:34 33° WSW 04:36:40 41° WNW 04:40:24 10° N
SL-16 R/B 2.5 04:33:02 11° S 04:38:55 64° WSW 04:45:07 10° NNW
Yuri Rocket 4.1 04:36:26 24° WSW 04:39:05 37° S 04:43:31 10° ESE
Cosmos 1455 Rocket 3.1 04:39:08 26° SSW 04:41:29 61° W 04:45:54 10° N
Cosmos 1025 Rocket 3.9 04:39:12 10° NNW 04:42:58 30° W 04:44:14 25° WSW
Cosmos 1626 Rocket 4.3 04:39:53 10° N 04:44:10 52° E 04:48:27 10° SSE
Meteor 1-23 Rocket 4.4 04:41:20 10° NNW 04:46:53 54° W 04:51:44 13° SSW
CENTAUR R/B 3.3 04:39:44 10° NW 04:47:20 48° WSW 04:55:10 10° S
Skynet4D Del rocket 4.4 04:45:28 23° SW 04:47:33 30° S 04:52:21 10° SE
UNK 4.1 04:42:44 15° WSW 04:48:59 43° NW 04:51:59 10° NE
Resurs 1-4 Rocket 2.5 04:44:21 10° N 04:49:26 48° WNW 04:52:52 20° SW
Cosmos 2297 3.7 04:46:00 21° SSW 04:49:49 69° WNW 04:55:31 10° NNE
Cosmos 2278 Rocket 3.1 04:46:43 20° WSW 04:49:55 34° WNW 04:55:04 10° N
IRS-1C Rocket 4.1 04:44:59 10° NNE 04:50:17 83° ESE 04:55:09 12° SSW
ARIANE 5 R/B 3.4 04:46:16 10° N 04:50:39 32° WNW 04:53:20 19° WSW
ATLAS 5 CENTAUR R/B 2.4 04:45:33 10° NNW 04:51:40 90° WSW 04:58:09 10° SSE
Cosmos 1110 Rocket 4.0 04:48:30 18° SSW 04:52:29 81° WNW 04:57:48 10° NNE
BREEZE-M DEB (TANK) 1.7 04:52:46 25° WSW 04:54:11 72° NNW 04:57:10 10° NE
Cosmos 2016 Rocket 4.3 04:49:04 10° S 04:55:21 72° E 05:01:36 10° N
CZ-2C R/B 4.0 04:52:58 10° SSE 04:57:41 78° ENE 05:02:29 10° N
Cosmos 1633 4.4 04:58:53 14° W 04:59:42 15° WNW 05:01:55 10° NW
Cosmos 1315 Rocket 3.7 05:02:17 19° SW 05:04:36 34° WNW 05:08:19 10° NNW
Thor Agena Rocket 3.9 05:00:49 10° SSE 05:05:58 69° ENE 05:11:04 10° N
COSMOS 2487 4.2 05:06:18 10° WNW 05:08:35 16° W 05:09:05 16° WSW
ASTRO F (AKARI) 4.3 05:05:36 10° S 05:08:56 82° WSW 05:12:29 10° NNW
CZ-4B R/B 3.3 05:04:24 10° NNE 05:10:07 89° E 05:15:46 10° SSW
Cosmos 2082 Rocket 2.3 05:05:44 10° NNW 05:11:30 86° ENE 05:17:12 10° SSE
ADEOS II 3.9 05:07:21 10° NE 05:11:56 30° E 05:16:28 10° SSE
CZ-4B R/B 3.2 05:08:00 10° NNE 05:12:34 81° E 05:16:59 10° S
Meteor 1-12 Rocket 4.4 05:08:23 10° SSW 05:14:13 65° W 05:19:59 10° N
Cosmos 1331 Rocket 4.2 05:09:54 13° SSW 05:14:25 57° WNW 05:19:33 10° N
OAO 3 Copernicus 4.3 05:10:09 11° W 05:15:03 82° S 05:20:06 10° E
Cosmos 1346 Rocket 3.1 05:13:07 10° N 05:17:10 71° E 05:21:09 10° SSE
Cosmos 2173 Rocket 4.2 05:14:16 10° SSW 05:20:08 50° W 05:26:07 10° N
Cosmos 1975 3.1 05:17:14 10° SSW 05:21:01 48° W 05:24:54 10° N
Cosmos 2285 Rocket 4.1 05:15:31 10° S 05:21:47 79° ESE 05:28:07 10° NNE
Cosmos 1743 3.8 05:18:50 10° SSE 05:22:29 45° E 05:26:08 10° NNE
NAVSTAR 52 R/B(PAM-D 3.7 05:21:41 17° SW 05:23:05 49° SSE 05:25:39 10° E
BREEZE-M DEB 4.4 05:26:19 12° SSW 05:28:21 47° SE 05:31:22 10° ENE
Cosmos 1500 3.2 05:24:47 10° S 05:28:39 74° W 05:32:33 10° N
Cosmos 1802 Rocket 4.3 05:24:07 10° SSW 05:30:00 48° W 05:35:54 10° N
Cosmos 1515 3.6 05:26:23 10° N 05:30:12 81° W 05:34:02 10° S
Cosmos 1066 Rocket 4.2 05:33:07 10° N 05:38:38 88° E 05:43:59 10° S
